C/2020 N1 ( PanSTARRS )

Japanese version
Home page
Updated on August 11, 2020

---------------------------------------------------------------------

* Profile

Discovery Date July 3, 2020
Magnitude 20.7 mag
Discoverer Pan-STARRS 1 telescope (Haleakala)

* Orbital Elements

Epoch 2021 Mar. 7.0 TT = JDT 2459280.5
T 2021 Mar. 12.20249 TT                                 Rudenko
q   1.3204195            (2000.0)            P               Q
z  -0.0005003      Peri.  186.77503     -0.27307423     -0.82902119
 +/-0.0001117      Node   279.98363     +0.90423287     -0.04806517
e   1.0006607      Incl.   29.70365     +0.32831904     -0.55714775
From 70 observations 2020 July 1-30, mean residual 0".3.

* Finding Charts

* Magnitudes Graph

        m1 = 12.0 + 5 log d + 10.0 log r

---------------------------------------------------------------------

The orbital elements are published on M.P.E.C. 2020-P19.
The charts are made with StellaNavigator Ver.10 (AstroArts).
The magnitudes graphs are made with Comet for Windows.

---------------------------------------------------------------------

Copyright(C) Seiichi Yoshida (comet@aerith.net). All rights reserved.